This is the latest recevied weather packets stored in our database for station/object KI4NG. If no packets are shown the sender has not sent any weather packets the latest 10 day(s).
| Time | Temp. | Humidity | Pressure | Rain* | Wind** | Luminosity | Snow |
|---|---|---|---|---|---|---|---|
| 1788571816 | 25.56° C | 83% | 1017.6 hPa | 0 mm | - | 0 W/m² | - |
| 1788571510 | 26.11° C | 83% | 1017.5 hPa | 0 mm | - | 0 W/m² | - |
| 1788571207 | 26.11° C | 81% | 1017.6 hPa | 0 mm | - | 0 W/m² | - |
| 1788570903 | 26.67° C | 80% | 1017.5 hPa | 0 mm | - | 0 W/m² | - |
| 1788570598 | 26.67° C | 79% | 1017.7 hPa | 0 mm | - | 0 W/m² | - |
| 1788570298 | 26.11° C | 80% | 1017.8 hPa | 0 mm | - | 0 W/m² | - |
| 1788569994 | 26.67° C | 82% | 1017.9 hPa | 0 mm | - | 0 W/m² | - |
| 1788569689 | 26.67° C | 81% | 1018 hPa | 0 mm | - | 0 W/m² | - |
| 1788569384 | 26.67° C | 82% | 1018.1 hPa | 0 mm | - | 0 W/m² | - |
| 1788569079 | 26.67° C | 80% | 1018.1 hPa | 0 mm | - | 0 W/m² | - |
| 1788568774 | 26.67° C | 80% | 1018 hPa | 0 mm | - | 0 W/m² | - |
| 1788568470 | 26.67° C | 80% | 1018.2 hPa | 0 mm | - | 0 W/m² | - |
| 1788568166 | 26.67° C | 80% | 1018.2 hPa | 0 mm | - | 0 W/m² | - |
| 1788567860 | 26.67° C | 81% | 1018 hPa | 0 mm | - | 0 W/m² | - |
| 1788567560 | 26.67° C | 79% | 1018.2 hPa | 0 mm | - | 0 W/m² | - |
| 1788567263 | 27.22° C | 76% | 1018.2 hPa | 0 mm | - | 0 W/m² | - |
| 1788566950 | 27.22° C | 75% | 1018.1 hPa | 0 mm | - | 0 W/m² | - |
| 1788566645 | 27.22° C | 78% | 1017.8 hPa | 0 mm | - | 0 W/m² | - |
| 1788566341 | 27.78° C | 74% | 1017.9 hPa | 0 mm | - | 3 W/m² | - |
| 1788566036 | 27.78° C | 76% | 1017.8 hPa | 0 mm | - | 6 W/m² | - |
| 1788565736 | 27.78° C | 76% | 1017.8 hPa | 0 mm | - | 8 W/m² | - |
| 1788565430 | 27.78° C | 76% | 1017.7 hPa | 0 mm | - | 8 W/m² | - |
| 1788565127 | 27.78° C | 75% | 1017.9 hPa | 0 mm | - | 11 W/m² | - |
| 1788564822 | 27.78° C | 75% | 1018.1 hPa | 0 mm | - | 17 W/m² | - |
| 1788564519 | 28.33° C | 74% | 1018 hPa | 0 mm | - | 21 W/m² | - |
* Rain latest hour (hover to see other rain measurements)
** Current wind speed in m/s (hover to see current wind gust speed)